Location: Deuil
(48.9767°N, 2.3272°E)
Time: 18:33:57
(UTC+00:00)

CSL-04 Rocket - Pass Details

Date: 24 October 2021
Orbit: 805 x 861 km, 98.9° (Epoch: 07 December)

Event Time Altitude Azimuth Distance (km) Brightness Sun altitude
Exits shadow 18:56:05 35° 144° (SE) 1,351 4.4 -22.3°
Maximum altitude 18:58:26 70° 71° (ENE) 915 3.6 -22.7°
Drops below altitude 10° 19:03:59 10° 349° (N) 2,510 6.4 -23.6°
Sets 19:06:23 0° 347° (NNW) 3,449 7.2 -24.0°
